Regional Weather Roundup
Issued by NWS

Home | Current Version | Previous Version | Graphics & Text | Print | Product List | Glossary Off
Versions: 1 2 3 4 5 6 7 8 9 10 11 12 13 14 15 16 17 18 19 20 21 22 23 24 25 26 27 28 29 30 31 32 33 34 35 36 37 38 39 40 41 42 43 44 45 46 47 48 49 50

000
ASUS43 KTOP 291559
RWRKS

WEATHER ROUNDUP FOR KANSAS
NATIONAL WEATHER SERVICE GOODLAND KS
1100 AM CDT FRI JUL 29 2016

NOTE:  "FAIR" INDICATES FEW OR NO CLOUDS BELOW 12,000 FEET WITH NO
SIGNIFICANT WEATHER AND/OR OBSTRUCTIONS TO VISIBILITY.

KSZ001>006-013>018-027>032-041>047-291700-
NORTHWEST KANSAS

CITY           SKY/WX    TMP DP  RH WIND       PRES   REMARKS
GOODLAND       LGT RAIN  68  62  81 SE3       30.17S
HAYS           CLOUDY    75  61  60 E6        30.08F
HILL CITY      MOSUNNY   76  67  73 VRB5      30.11S
RUSSELL        MOSUNNY   75  67  76 S6        30.07S
$$

KSZ061>065-074>080-084>089-291700-
SOUTHWEST KANSAS

CITY           SKY/WX    TMP DP  RH WIND       PRES   REMARKS
DODGE CITY     PTSUNNY   74  64  71 E8        30.13R
ELKHART          N/A     74  62  66 E10         N/A
GARDEN CITY    MOSUNNY   72  63  73 E13       30.12S
GREAT BEND     CLOUDY    73  61  64 S10       30.08F
LIBERAL        CLOUDY    73  63  68 E5        30.15R
$$

KSZ066>073-081>083-090>101-291700-
SOUTHEAST KANSAS

CITY           SKY/WX    TMP DP  RH WIND       PRES   REMARKS
CHANUTE        CLOUDY    77  69  76 N6        30.01F
COFFEYVILLE    CLOUDY    76  69  79 NE7       30.00F
HUTCHINSON     MOSUNNY   77  67  71 W7        30.06F
NEWTON         MOSUNNY   75  69  81 W6        30.06S
PARSONS        CLOUDY    77  69  76 N6        30.03F
WICHITA INTL   PTSUNNY   76  68  76 NW12      30.04F
WICHITA JABRA  CLOUDY    74  69  85 NW8       30.04F
WICHITA MCCONL PTSUNNY   74  66  77 N13       30.03F
WINFIELD       CLOUDY    73  67  81 N13       30.02R
$$

KSZ007>012-019>026-033>040-048>060-102>105-291700-
NORTHEAST KANSAS

CITY           SKY/WX    TMP DP  RH WIND       PRES   REMARKS
CONCORDIA      MOSUNNY   75  67  76 NE5       30.06F
EMPORIA        MOSUNNY   78  67  68 CALM      30.03F
LAWRENCE       PTSUNNY   79  66  64 N3        30.03S
MANHATTAN      PTSUNNY   76  68  76 E7        30.04S
OLATHE IND     MOSUNNY   78  68  71 CALM      30.04R
OLATHE EXE     MOSUNNY   78  65  63 NE7       30.03R
SALINA         CLOUDY    79  66  64 CALM      30.05S
TOPEKA BILLARD MOSUNNY   79  66  64 NE7       30.03S
TOPEKA FORBES  MOSUNNY   78  67  68 CALM      30.04R
$$




USA.gov is the U.S. government's official web portal to all federal, state and local government web resources and services.